GFSSGP_700_temp_231.txt.gz
Temp
13 13 13 13 13 12 11 11 11 11 11 11 10 11 11 10 10 9 9 8 8 8 9 8 8 8 8 8 8 8 7 7 7 7 7 7 7 7 7 7 7 7 7 7 7 7 7 7 7
13 13 13 13 13 12 11 11 11 11 11 10 10 10 10 10 9 9 9 8 8 8 8 8 8 8 8 8 7 7 7 7 7 7 7 7 7 7 7 7 7 7 7 7 7 7 7 7 7
13 13 13 12 12 11 11 11 11 11 10 10 10 10 10 10 9 9 9 8 8 7 7 7 7 7 7 7 7 7 7 7 7 6 6 7 7 7 7 7 7 7 7 6 6 6 7 7 7
13 12 12 11 11 11 11 10 10 10 10 10 10 9 10 9 9 8 9 8 7 7 7 7 7 7 7 7 7 7 6 6 6 6 6 6 6 6 6 6 6 6 6 6 6 6 6 6 6
12 12 12 11 11 10 10 10 10 10 10 10 10 10 10 9 8 8 8 7 7 7 7 6 6 6 6 6 6 5 6 6 6 6 6 5 5 5 5 5 5 6 6 6 6 6 6 6 6
12 12 11 11 10 10 10 10 10 9 9 9 9 9 9 8 8 7 7 6 7 6 6 6 6 5 5 5 5 5 5 5 5 5 5 5 5 5 5 5 5 5 5 5 5 5 5 5 5
12 12 11 10 10 9 9 9 9 8 8 8 8 8 7 7 7 7 5 6 6 6 5 6 5 5 5 4 4 4 5 4 5 5 5 5 5 5 5 5 5 5 5 5 5 5 5 5 5
11 11 10 9 9 9 9 8 8 8 8 8 7 7 7 7 7 6 5 5 5 5 5 4 3 3 3 3 3 4 4 4 4 4 4 5 5 5 5 5 5 5 5 5 5 5 5 5 5
11 10 9 9 9 8 8 8 8 8 7 7 7 7 6 6 6 5 5 5 5 4 4 3 3 3 2 2 3 3 3 3 3 4 4 4 4 4 5 5 5 5 5 5 5 5 5 5 5
10 10 9 8 8 9 9 9 8 7 7 6 6 5 5 5 5 4 4 3 3 2 3 3 3 3 3 3 2 2 3 3 3 3 3 3 3 4 4 4 4 5 5 5 5 5 5 5 5
10 10 8 8 8 8 7 8 8 7 6 6 5 5 4 4 4 4 3 3 2 2 2 3 3 2 2 2 2 2 2 2 2 2 2 2 2 2 3 3 3 4 4 5 5 5 5 5 5
10 9 8 8 8 8 8 8 7 7 6 5 4 4 3 3 2 2 2 2 2 2 2 1 1 1 1 1 1 0 0 1 1 0 0 0 0 0 0 1 1 2 2 3 3 4 4 5 5
9 8 8 8 8 9 8 8 8 6 5 3 2 2 1 1 1 0 -0 -0 -1 -1 -1 -2 -2 -2 -2 -3 -2 -2 -2 -2 -1 -1 -1 -1 -1 -1 -0 0 0 1 1 1 1 2 3 3 4
10 9 8 8 8 8 8 7 6 4 3 2 1 1 0 -0 -1 -1 -2 -2 -3 -3 -3 -4 -4 -4 -4 -4 -4 -4 -3 -3 -2 -2 -2 -1 -1 -1 -1 -1 -0 0 1 1 0 1 1 1 2
9 9 8 8 8 7 7 6 5 3 2 1 -0 -1 -2 -2 -3 -3 -4 -4 -5 -5 -5 -6 -5 -5 -5 -5 -5 -5 -4 -4 -4 -3 -3 -2 -1 -1 -1 -1 -0 -0 0 1 1 1 1 1 1
9 9 8 8 8 7 7 4 3 2 1 -0 -2 -2 -3 -3 -4 -5 -6 -6 -6 -7 -7 -7 -7 -6 -6 -5 -5 -5 -6 -6 -5 -5 -4 -4 -3 -2 -2 -1 -1 -0 0 -0 1 1 1 1 1
9 8 8 7 7 7 6 3 2 0 -1 -2 -3 -3 -4 -5 -5 -6 -6 -6 -7 -7 -6 -6 -6 -6 -6 -6 -7 -7 -7 -6 -6 -6 -6 -5 -5 -4 -4 -4 -4 -3 -3 -2 -2 -2 -1 -0 -0
7 7 7 6 6 5 4 2 1 -1 -3 -4 -4 -5 -5 -6 -6 -6 -6 -6 -6 -5 -5 -5 -5 -6 -7 -8 -8 -8 -7 -7 -7 -7 -7 -7 -6 -6 -6 -6 -5 -5 -5 -5 -4 -4 -4 -4 -3
6 7 6 5 4 2 0 -1 -3 -4 -5 -5 -5 -6 -6 -6 -6 -6 -5 -4 -5 -6 -7 -8 -9 -9 -9 -9 -9 -9 -9 -9 -8 -8 -8 -8 -7 -7 -7 -7 -6 -6 -6 -5 -5 -5 -5 -4 -4
6 6 5 3 3 2 1 -2 -4 -5 -5 -6 -7 -7 -6 -6 -5 -5 -6 -7 -7 -7 -7 -8 -9 -9 -9 -10 -10 -10 -10 -10 -9 -9 -9 -9 -8 -8 -8 -7 -7 -7 -6 -6 -6 -6 -6 -6 -6
6 5 3 3 2 1 -0 -4 -5 -6 -7 -7 -7 -7 -6 -7 -7 -7 -7 -7 -7 -8 -8 -9 -9 -9 -9 -10 -10 -10 -10 -10 -10 -9 -9 -9 -9 -8 -8 -7 -7 -7 -7 -6 -6 -6 -6 -6 -7
5 3 4 3 1 0 -2 -2 -6 -7 -7 -7 -6 -6 -7 -7 -7 -8 -8 -7 -8 -8 -8 -9 -9 -9 -9 -10 -10 -10 -9 -9 -9 -9 -9 -9 -9 -8 -8 -8 -7 -7 -7 -7 -6 -7 -7 -7 -7
3 3 4 2 1 -1 -3 -4 -8 -7 -6 -7 -7 -7 -8 -8 -8 -8 -8 -8 -8 -9 -9 -9 -9 -9 -9 -9 -9 -9 -9 -9 -9 -9 -9 -8 -8 -8 -8 -8 -8 -7 -8 -7 -7 -8 -8 -8 -8
2 3 3 1 1 -2 -3 -4 -8 -8 -9 -8 -8 -8 -8 -8 -8 -8 -8 -8 -8 -8 -9 -9 -9 -9 -9 -9 -9 -9 -9 -9 -9 -9 -9 -8 -8 -8 -8 -8 -8 -8 -8 -8 -8 -8 -8 -9 -9
1 1 0 1 0 0 -4 -3 -6 -9 -9 -9 -9 -9 -8 -8 -9 -9 -9 -9 -8 -9 -9 -9 -9 -9 -9 -10 -10 -10 -10 -10 -9 -9 -9 -9 -9 -8 -8 -9 -9 -9 -9 -9 -9 -9 -9 -9 -9
-1 -2 -1 -2 -1 -3 -5 -5 -6 -8 -9 -7 -8 -8 -8 -8 -9 -9 -9 -9 -9 -9 -9 -9 -9 -9 -9 -10 -10 -10 -10 -10 -10 -10 -10 -10 -10 -10 -10 -10 -9 -10 -10 -10 -9 -9 -9 -9 -9
-2 -4 -5 -6 -6 -7 -6 -6 -6 -8 -8 -9 -8 -8 -8 -8 -9 -9 -9 -9 -10 -10 -9 -9 -9 -9 -9 -9 -9 -9 -9 -10 -9 -9 -10 -10 -10 -10 -10 -10 -11 -11 -11 -11 -10 -10 -9 -9 -9
-2 -4 -4 -6 -8 -6 -8 -6 -8 -9 -10 -9 -9 -9 -9 -9 -9 -9 -9 -10 -9 -9 -10 -9 -9 -9 -9 -9 -10 -10 -9 -9 -9 -9 -9 -10 -10 -10 -10 -10 -10 -11 -11 -11 -11 -11 -10 -10 -9
-4 -5 -6 -7 -8 -8 -9 -6 -9 -10 -10 -10 -10 -10 -9 -9 -9 -9 -10 -9 -9 -9 -9 -9 -9 -9 -9 -9 -10 -9 -9 -9 -9 -9 -9 -9 -10 -10 -10 -10 -10 -10 -10 -11 -11 -11 -10 -9 -9
-5 -6 -8 -8 -8 -9 -10 -10 -9 -10 -10 -10 -10 -10 -9 -9 -9 -10 -10 -9 -9 -9 -9 -9 -9 -9 -9 -9 -9 -9 -9 -9 -9 -9 -9 -10 -10 -10 -10 -10 -10 -10 -10 -11 -11 -11 -10 -9 -9

GFSSGP_700_temp_237.txt.gz
Temp
13 13 13 13 13 13 14 12 12 12 11 10 9 10 10 10 10 8 9 8 7 7 7 7 7 7 7 6 6 6 7 7 7 7 7 7 7 7 7 7 7 7 7 7 7 7 7 7 7
13 13 13 13 13 15 13 12 11 10 9 9 9 9 9 10 9 9 8 8 7 7 7 6 6 6 6 6 6 6 6 6 6 6 6 6 6 6 7 7 7 6 7 7 6 7 7 7 7
13 13 12 12 14 13 13 11 10 9 9 9 9 10 9 9 9 8 7 7 7 7 6 6 6 6 6 6 6 6 6 6 6 6 6 6 6 6 6 6 6 6 6 6 6 6 6 7 7
13 12 12 13 12 11 11 10 9 10 9 8 8 8 8 8 8 7 6 6 6 6 6 5 5 5 5 5 5 5 5 5 6 6 5 6 6 5 5 5 5 6 6 6 6 6 6 6 6
12 12 13 12 11 10 10 9 9 9 9 7 8 8 8 8 8 6 6 5 5 6 5 5 5 5 5 5 5 5 5 5 5 5 5 5 5 5 5 5 5 5 5 5 5 6 6 6 6
11 12 14 13 11 10 9 9 9 8 7 8 7 5 7 8 7 6 6 4 5 5 5 4 5 5 5 5 5 4 4 5 4 5 4 5 5 5 5 5 5 5 5 5 4 4 5 5 6
10 12 12 12 10 9 8 8 10 8 9 9 8 6 7 7 6 5 5 5 5 4 4 5 3 4 4 4 4 4 4 4 4 4 4 4 4 4 4 4 4 4 5 4 4 4 4 5 5
11 11 11 10 11 8 10 10 9 8 9 8 7 4 4 6 5 4 3 3 3 5 4 4 4 3 4 3 3 3 3 3 3 3 3 3 3 3 4 4 4 4 4 5 5 4 4 4 5
11 11 11 10 9 8 8 7 7 7 7 7 6 5 3 2 1 0 1 1 1 2 2 2 2 2 2 1 2 2 2 2 2 3 3 3 3 3 3 3 3 3 4 4 4 4 4 4 4
10 10 9 8 7 8 8 8 5 5 6 5 5 3 3 3 2 0 -0 -0 -0 0 0 0 1 0 0 0 1 1 1 1 1 1 2 2 2 2 2 2 3 3 3 3 4 4 4 4 5
11 9 9 9 8 5 8 8 7 3 5 5 4 3 2 1 0 0 -0 -1 -1 -0 -0 0 -0 -1 -1 -1 -1 -1 -0 -0 0 -0 -0 0 0 1 1 1 1 2 2 3 3 3 3 3 4
10 9 9 9 8 7 7 7 6 6 5 4 3 1 0 -1 -1 -1 -1 -1 -1 -1 -2 -2 -2 -2 -2 -2 -3 -3 -3 -3 -2 -2 -1 -1 -1 -1 -1 -1 -1 -0 0 1 1 2 3 3 3
10 10 9 8 8 7 7 6 5 5 4 3 1 -1 -1 -2 -2 -2 -2 -2 -3 -3 -3 -4 -4 -4 -4 -3 -3 -3 -3 -3 -3 -3 -3 -3 -2 -2 -2 -1 -1 -1 -1 -1 0 1 1 2 2
9 9 8 8 7 7 6 5 4 3 1 -1 -3 -4 -4 -4 -4 -4 -4 -4 -5 -5 -4 -4 -4 -4 -4 -4 -4 -4 -4 -4 -4 -4 -4 -4 -5 -4 -3 -3 -3 -2 -2 -1 -1 -0 0 0 1
9 8 8 6 5 5 5 2 2 1 -1 -4 -5 -6 -6 -5 -5 -5 -5 -5 -4 -4 -4 -5 -6 -6 -6 -6 -6 -5 -5 -6 -6 -7 -7 -7 -8 -7 -7 -5 -4 -4 -3 -2 -2 -1 -1 -0 0
7 8 9 7 6 3 4 2 1 0 -3 -5 -6 -6 -6 -6 -7 -5 -5 -5 -5 -5 -5 -5 -5 -5 -5 -6 -6 -6 -6 -6 -6 -7 -7 -9 -8 -8 -9 -8 -6 -6 -5 -4 -3 -3 -2 -1 -0
9 9 9 7 5 5 3 1 1 -2 -5 -6 -6 -6 -7 -7 -7 -7 -7 -8 -6 -6 -6 -6 -6 -6 -6 -6 -6 -7 -7 -7 -7 -7 -7 -8 -9 -8 -8 -9 -9 -9 -9 -8 -6 -5 -4 -3 -2
6 7 7 6 4 3 -1 -2 -2 -5 -6 -6 -6 -7 -7 -7 -7 -8 -8 -7 -6 -7 -7 -7 -7 -7 -7 -7 -7 -7 -7 -7 -8 -7 -7 -8 -8 -9 -9 -9 -9 -9 -9 -9 -8 -8 -7 -6 -5
6 5 6 5 3 2 -2 -4 -6 -6 -6 -6 -7 -7 -7 -7 -7 -8 -8 -8 -7 -8 -8 -8 -8 -8 -8 -8 -9 -8 -8 -8 -8 -8 -8 -8 -8 -9 -10 -10 -10 -9 -10 -9 -10 -9 -9 -9 -7
6 5 5 3 2 1 -1 -4 -6 -6 -6 -7 -6 -7 -7 -8 -6 -7 -6 -7 -8 -8 -9 -8 -8 -8 -9 -10 -10 -10 -10 -9 -8 -9 -9 -8 -8 -8 -9 -9 -10 -10 -10 -10 -10 -10 -9 -8 -8
5 4 4 2 2 0 -1 -3 -5 -6 -6 -6 -6 -7 -7 -8 -8 -9 -9 -9 -9 -10 -10 -9 -9 -8 -9 -9 -9 -9 -9 -9 -8 -9 -9 -10 -9 -9 -8 -9 -9 -9 -10 -10 -9 -10 -10 -9 -8
6 5 5 3 1 4 -0 3 -4 -5 -6 -6 -6 -7 -8 -8 -9 -9 -9 -10 -10 -9 -9 -9 -8 -9 -9 -9 -9 -9 -9 -9 -9 -9 -9 -9 -10 -9 -9 -9 -9 -9 -9 -9 -9 -10 -10 -10 -9
5 6 4 3 1 2 1 2 -3 -5 -6 -6 -7 -8 -8 -9 -9 -10 -10 -10 -9 -8 -8 -8 -8 -8 -9 -9 -9 -9 -10 -10 -10 -9 -9 -9 -9 -10 -9 -9 -9 -9 -9 -9 -9 -10 -10 -10 -10
3 5 4 4 2 5 0 0 -3 -6 -6 -7 -7 -8 -8 -9 -9 -9 -8 -8 -8 -7 -7 -8 -8 -8 -8 -8 -8 -9 -9 -10 -10 -10 -10 -10 -10 -10 -10 -10 -10 -9 -9 -9 -9 -9 -10 -10 -11
2 2 6 6 6 6 1 0 -4 -6 -6 -8 -8 -9 -9 -9 -8 -8 -9 -8 -8 -7 -8 -8 -8 -8 -8 -8 -8 -8 -9 -9 -9 -9 -9 -10 -10 -10 -10 -10 -10 -11 -11 -10 -9 -9 -10 -10 -10
-1 -0 1 1 3 2 1 1 -4 -6 -7 -8 -8 -9 -9 -9 -9 -9 -8 -8 -8 -7 -8 -8 -8 -8 -8 -8 -8 -8 -8 -8 -9 -9 -9 -9 -9 -10 -10 -10 -10 -10 -11 -11 -11 -11 -11 -10 -10
-1 -2 -2 -2 0 1 3 -1 -5 -5 -7 -8 -9 -9 -9 -9 -9 -8 -8 -8 -7 -8 -8 -8 -8 -8 -8 -8 -8 -8 -8 -8 -8 -8 -9 -9 -9 -9 -9 -10 -10 -10 -11 -11 -11 -11 -11 -12 -12
-1 -2 -1 -1 -2 -1 2 -1 -5 -6 -8 -8 -9 -10 -9 -8 -8 -8 -8 -8 -8 -8 -8 -9 -9 -8 -8 -8 -8 -8 -8 -8 -8 -8 -8 -9 -9 -9 -9 -10 -10 -11 -11 -11 -11 -11 -11 -11 -11
-2 -4 -3 -4 -4 -3 -2 -2 -6 -7 -8 -9 -8 -10 -9 -9 -9 -8 -8 -8 -8 -8 -8 -9 -8 -8 -7 -7 -7 -7 -7 -7 -7 -7 -8 -8 -8 -9 -9 -9 -10 -10 -11 -11 -11 -11 -11 -11 -11
-2 -4 -5 -5 -4 -5 -6 -5 -6 -7 -9 -9 -8 -8 -8 -9 -8 -8 -7 -8 -7 -7 -7 -8 -8 -7 -7 -6 -6 -6 -5 -5 -6 -6 -7 -7 -7 -8 -9 -9 -10 -10 -10 -11 -11 -11 -11 -11 -11

GFSSGP_700_temp_240.txt.gz
Temp
13 13 13 13 13 13 13 13 12 12 11 10 10 10 10 10 10 9 8 6 6 7 7 7 7 6 6 6 6 6 6 6 6 6 6 6 6 7 7 7 7 7 7 7 7 7 7 7 7
13 13 13 13 13 13 13 12 11 10 9 10 9 9 9 10 9 8 7 6 7 7 6 6 6 6 6 6 6 6 6 6 6 6 6 6 6 6 6 6 6 6 6 6 6 6 7 7 7
13 13 12 12 13 12 12 11 10 10 9 9 8 9 9 9 8 7 7 5 5 5 5 5 6 6 6 6 6 6 6 6 6 6 6 6 6 6 6 6 6 6 6 6 6 6 6 6 6
13 13 13 13 12 11 10 10 10 10 10 9 9 9 9 8 8 7 7 6 6 5 5 6 6 5 5 5 5 6 5 5 5 5 5 5 5 6 5 5 5 5 5 5 5 6 6 6 6
12 12 13 12 11 10 10 10 9 9 9 8 7 7 7 7 6 5 5 6 5 4 5 4 4 5 5 5 5 5 4 4 4 4 4 5 5 5 5 5 5 5 5 5 5 5 5 5 6
12 12 12 12 11 10 9 9 9 9 8 8 6 4 5 5 4 4 4 4 4 4 4 4 3 4 3 5 5 5 5 4 4 4 4 4 4 4 4 5 5 5 4 4 4 5 4 4 5
12 12 12 12 10 9 8 7 8 8 8 8 7 5 4 4 3 3 3 3 3 3 3 4 3 3 3 3 3 3 3 2 3 3 3 3 4 4 4 4 4 4 4 4 4 4 4 4 4
12 11 11 11 11 8 6 6 7 7 8 7 5 5 3 3 3 2 1 2 2 1 1 2 2 3 3 2 2 2 2 2 2 2 2 2 3 3 3 3 3 4 4 4 4 4 4 4 4
11 11 11 9 9 7 7 6 6 7 7 7 6 5 3 2 1 0 1 2 1 1 1 1 1 0 -0 0 0 1 0 0 0 1 1 1 1 1 2 2 3 3 3 3 3 4 4 4 4
10 11 9 7 8 8 7 7 5 6 6 5 5 4 3 2 2 1 0 -0 -1 -1 -1 -1 -2 -1 -0 -1 -1 -1 -1 -1 -0 0 0 -0 0 0 1 1 1 2 2 3 3 3 3 4 4
10 9 9 8 7 8 9 7 6 6 5 4 4 3 2 2 0 -1 -2 -2 -2 -3 -3 -3 -3 -3 -3 -2 -2 -2 -1 -2 -2 -1 -1 -1 0 -0 -1 -1 -0 0 1 1 1 2 2 2 3
10 10 10 9 8 7 7 7 6 6 4 3 2 1 0 -1 -2 -2 -2 -2 -3 -3 -3 -3 -3 -3 -3 -3 -3 -3 -3 -2 -2 -2 -2 -2 -2 -1 -1 -1 -1 -1 -1 -0 -0 0 1 1 2
10 9 9 8 8 7 7 6 5 4 2 1 -0 -1 -1 -3 -3 -3 -3 -3 -3 -3 -3 -3 -3 -4 -4 -4 -4 -4 -4 -5 -5 -4 -4 -4 -4 -4 -3 -1 -2 -2 -2 -1 -1 -1 -0 0 0
9 9 8 8 7 6 5 4 2 1 0 -0 -1 -3 -5 -6 -5 -4 -5 -5 -6 -6 -6 -6 -6 -6 -5 -5 -5 -5 -5 -5 -5 -5 -5 -5 -5 -6 -7 -7 -6 -5 -4 -3 -3 -2 -1 -1 -1
9 9 7 6 5 5 4 2 0 -0 -1 -3 -5 -5 -4 -5 -5 -6 -5 -4 -5 -5 -5 -5 -5 -5 -5 -5 -6 -6 -6 -7 -7 -6 -6 -6 -6 -6 -7 -8 -7 -7 -6 -5 -5 -3 -3 -2 -1
8 8 7 7 5 3 2 -0 1 0 -2 -4 -4 -4 -5 -5 -5 -5 -4 -5 -5 -5 -5 -5 -5 -6 -6 -6 -6 -6 -6 -7 -7 -7 -7 -7 -7 -7 -7 -8 -8 -8 -7 -7 -7 -6 -5 -3 -3
8 8 7 7 5 3 3 1 1 0 -2 -3 -5 -5 -5 -4 -4 -5 -5 -6 -5 -6 -6 -7 -7 -7 -7 -7 -7 -6 -6 -7 -7 -8 -8 -8 -7 -8 -8 -8 -9 -8 -8 -7 -8 -7 -7 -6 -4
8 8 7 6 5 4 2 1 -1 -2 -5 -5 -5 -6 -5 -5 -5 -5 -6 -6 -7 -7 -7 -7 -7 -7 -7 -7 -7 -7 -7 -7 -7 -8 -8 -9 -9 -8 -8 -8 -9 -9 -9 -9 -9 -8 -8 -8 -7
6 6 6 6 4 2 0 -1 -2 -4 -5 -5 -5 -5 -5 -6 -5 -6 -6 -7 -8 -7 -8 -8 -7 -7 -7 -8 -8 -8 -8 -8 -8 -8 -8 -8 -8 -8 -8 -9 -8 -9 -10 -9 -9 -9 -9 -8 -8
6 5 5 4 2 2 1 -2 -3 -4 -5 -5 -6 -5 -5 -5 -5 -6 -7 -7 -7 -8 -8 -8 -7 -7 -8 -8 -8 -9 -9 -8 -8 -8 -8 -8 -8 -9 -9 -9 -9 -10 -10 -10 -10 -10 -10 -9 -9
5 5 4 2 2 2 0 -2 -4 -5 -5 -5 -5 -4 -5 -5 -6 -7 -8 -7 -7 -7 -7 -7 -7 -7 -8 -8 -8 -8 -8 -8 -8 -9 -8 -8 -9 -9 -9 -9 -9 -9 -9 -10 -10 -10 -10 -10 -10
5 6 4 3 2 2 2 0 -3 -5 -5 -4 -4 -4 -5 -6 -7 -8 -8 -7 -7 -7 -6 -7 -7 -7 -8 -8 -8 -8 -8 -8 -8 -8 -9 -8 -8 -9 -9 -9 -9 -9 -10 -10 -10 -10 -10 -10 -10
4 6 5 5 3 3 1 1 -3 -5 -4 -3 -5 -5 -6 -6 -7 -7 -8 -7 -7 -7 -8 -8 -7 -7 -8 -8 -8 -8 -8 -8 -8 -8 -8 -9 -9 -9 -9 -9 -9 -10 -10 -9 -9 -10 -10 -10 -10
4 6 5 5 4 3 1 1 -5 -5 -6 -4 -5 -5 -6 -6 -7 -7 -7 -7 -7 -8 -8 -8 -8 -8 -8 -8 -8 -8 -8 -8 -8 -8 -8 -8 -9 -9 -9 -9 -10 -10 -10 -10 -10 -10 -10 -11 -11
3 4 3 3 2 2 2 -0 -5 -6 -6 -5 -6 -6 -6 -7 -8 -7 -8 -7 -7 -7 -7 -7 -7 -7 -7 -7 -7 -8 -8 -8 -8 -8 -8 -8 -8 -9 -9 -9 -9 -10 -10 -10 -11 -11 -11 -11 -11
-1 0 0 -2 -1 -1 1 -2 -4 -6 -5 -5 -5 -6 -6 -7 -7 -8 -7 -7 -7 -6 -6 -7 -7 -7 -7 -6 -7 -7 -7 -8 -8 -8 -8 -8 -8 -9 -9 -9 -9 -10 -10 -11 -11 -11 -11 -11 -12
0 -1 -2 -3 -1 -1 2 -4 -6 -5 -4 -5 -6 -6 -6 -7 -9 -8 -6 -7 -6 -6 -6 -7 -6 -6 -6 -6 -7 -7 -7 -7 -7 -7 -7 -8 -8 -8 -9 -9 -9 -10 -10 -10 -11 -11 -11 -11 -11
-0 -1 -2 -2 -6 -5 -0 -4 -6 -6 -6 -6 -6 -6 -7 -8 -8 -7 -7 -6 -6 -6 -6 -6 -6 -6 -6 -6 -6 -7 -6 -6 -7 -7 -7 -7 -7 -8 -8 -9 -9 -9 -10 -10 -11 -11 -11 -11 -11
-1 -2 -2 -3 -3 -5 -6 -4 -6 -6 -6 -7 -6 -7 -8 -9 -8 -7 -6 -6 -6 -5 -6 -6 -6 -5 -5 -5 -6 -7 -6 -6 -7 -6 -6 -6 -7 -6 -8 -9 -9 -9 -10 -10 -11 -11 -11 -11 -11
-1 -2 -3 -5 -5 -6 -6 -6 -5 -5 -7 -7 -7 -8 -9 -8 -7 -7 -7 -6 -6 -6 -6 -6 -6 -6 -6 -6 -6 -6 -6 -6 -7 -6 -7 -5 -5 -6 -7 -8 -9 -9 -10 -10 -10 -11 -11 -11 -11

GFSSGP_700_temp_246.txt.gz
Temp
12 12 12 12 12 11 9 8 9 9 10 9 9 9 9 9 8 7 5 3 5 4 5 5 5 5 4 5 5 5 5 5 5 5 6 6 6 6 6 6 6 6 6 6 6 6 6 6 6
12 12 12 12 11 10 8 7 9 9 9 8 8 9 8 8 8 5 4 5 4 4 4 5 4 4 4 4 4 4 5 5 5 5 5 5 5 6 5 6 6 5 5 5 6 6 6 6 6
12 12 12 11 11 9 8 8 7 7 8 8 8 8 7 7 5 4 3 4 4 4 4 4 3 4 4 4 4 4 3 4 5 5 5 5 5 5 5 5 5 5 5 5 6 5 5 6 5
12 12 10 10 10 8 8 7 7 8 8 8 8 7 7 7 6 3 2 3 2 2 4 2 4 4 2 3 4 3 4 3 3 4 4 4 4 4 4 4 4 4 5 5 5 5 5 5 5
12 11 10 9 8 7 7 8 8 9 9 8 7 7 6 6 5 5 4 3 3 3 3 2 2 2 3 3 2 2 3 3 2 3 4 3 3 3 4 4 3 4 4 4 4 4 4 5 4
12 11 10 10 8 7 8 8 8 8 8 8 7 7 5 5 5 5 5 4 3 2 1 1 1 0 -0 0 0 1 2 2 2 2 3 4 3 3 3 4 4 3 4 3 3 4 4 4 4
11 10 9 9 8 8 8 8 8 8 7 7 7 6 5 4 3 3 2 1 0 0 0 0 0 1 1 1 0 0 0 1 1 1 1 2 1 2 2 2 2 2 3 3 3 3 3 3 4
11 10 8 8 8 9 9 8 7 7 7 6 4 4 3 2 1 -1 -1 -2 -2 -1 -1 -0 0 1 1 1 1 1 1 0 1 1 0 0 0 1 1 1 1 2 2 2 2 2 3 4 3
10 10 9 9 9 9 8 7 7 7 6 4 4 3 2 0 -1 -2 -1 -1 -0 0 0 0 -0 -1 -1 -2 -2 -1 -1 -0 0 0 0 0 1 0 0 0 0 1 1 1 2 2 2 3 2
10 10 10 9 8 8 7 7 6 5 4 3 2 1 -0 -0 -1 -0 0 1 1 1 -0 -2 -2 -2 -2 -2 -2 -2 -3 -3 -2 -2 -3 -2 -1 -0 0 1 1 0 -0 0 1 1 2 2 2
10 10 9 9 8 8 7 6 5 5 4 4 3 1 -0 -1 -0 0 -0 -2 -3 -4 -3 -3 -3 -3 -3 -3 -3 -3 -3 -3 -3 -3 -3 -3 -3 -3 -3 -2 -1 -0 -0 -0 -0 1 1 1 1
9 9 8 8 8 7 5 5 4 4 3 2 0 -1 -2 -1 -2 -3 -3 -3 -3 -3 -4 -4 -4 -4 -4 -4 -4 -3 -4 -4 -3 -3 -4 -4 -3 -4 -4 -3 -3 -3 -2 -1 -1 -1 -0 0 1
8 9 8 7 7 6 5 5 4 3 2 -1 -2 -3 -2 -2 -3 -3 -3 -4 -4 -4 -4 -4 -4 -4 -4 -4 -4 -4 -4 -4 -4 -5 -4 -4 -5 -4 -4 -4 -4 -4 -4 -4 -4 -3 -1 -0 -0
8 7 7 6 5 5 4 3 2 1 -1 -3 -3 -3 -3 -3 -4 -4 -4 -4 -4 -4 -4 -3 -3 -3 -3 -3 -3 -4 -4 -5 -5 -5 -5 -5 -5 -5 -5 -5 -5 -5 -5 -5 -5 -5 -5 -3 -2
7 7 7 6 5 3 2 2 2 -0 -3 -3 -3 -4 -4 -4 -4 -4 -4 -4 -4 -3 -3 -3 -3 -3 -3 -3 -3 -4 -4 -5 -5 -5 -5 -6 -6 -6 -6 -6 -6 -5 -6 -5 -6 -6 -6 -6 -5
6 6 6 6 4 3 2 1 -1 -3 -5 -4 -4 -4 -3 -3 -3 -3 -4 -4 -3 -3 -3 -4 -4 -4 -3 -3 -3 -3 -4 -5 -5 -6 -6 -6 -6 -6 -7 -6 -6 -6 -6 -6 -6 -7 -8 -8 -7
5 6 5 3 3 1 1 -0 -3 -5 -4 -4 -4 -4 -3 -3 -3 -4 -4 -4 -3 -3 -4 -4 -4 -4 -4 -4 -4 -4 -4 -5 -5 -6 -6 -7 -7 -7 -7 -7 -7 -6 -7 -7 -7 -7 -8 -8 -8
7 6 4 4 2 1 1 -0 -3 -5 -4 -5 -5 -4 -3 -3 -4 -4 -4 -4 -4 -4 -4 -4 -4 -4 -4 -4 -4 -4 -3 -4 -4 -5 -5 -6 -6 -7 -7 -7 -8 -7 -7 -7 -7 -7 -8 -9 -9
7 5 4 4 1 1 0 -1 -3 -4 -5 -5 -5 -4 -4 -4 -4 -5 -4 -4 -4 -4 -4 -4 -4 -4 -4 -4 -4 -3 -3 -3 -3 -4 -5 -6 -7 -7 -7 -7 -8 -8 -8 -8 -8 -8 -9 -9 -8
6 5 4 2 1 1 -1 -2 -5 -6 -6 -6 -5 -4 -4 -5 -4 -4 -4 -4 -4 -4 -4 -4 -4 -5 -5 -4 -4 -4 -4 -4 -4 -4 -5 -6 -6 -7 -7 -8 -8 -8 -8 -9 -8 -8 -9 -9 -9
5 4 3 1 1 1 -0 -4 -5 -6 -6 -5 -4 -5 -5 -5 -5 -5 -4 -4 -4 -4 -4 -4 -4 -4 -4 -5 -4 -4 -4 -4 -4 -4 -4 -5 -6 -7 -7 -8 -8 -8 -8 -9 -9 -9 -9 -10 -10
5 3 4 4 2 1 -0 -3 -5 -5 -5 -4 -5 -5 -5 -5 -5 -5 -5 -4 -4 -4 -5 -5 -5 -5 -5 -6 -5 -5 -5 -5 -5 -5 -5 -5 -5 -6 -7 -8 -8 -8 -9 -9 -9 -9 -9 -10 -10
5 4 4 4 3 1 -1 -2 -7 -5 -5 -5 -5 -5 -5 -6 -6 -5 -5 -5 -5 -5 -5 -5 -5 -5 -6 -6 -7 -6 -6 -7 -6 -6 -6 -6 -6 -6 -7 -8 -8 -9 -9 -9 -9 -10 -10 -10 -10
5 4 4 3 2 -0 -1 -1 -7 -6 -7 -6 -6 -6 -6 -6 -5 -5 -6 -5 -4 -4 -4 -4 -4 -5 -5 -6 -7 -7 -7 -7 -6 -6 -6 -5 -6 -6 -7 -8 -8 -9 -9 -9 -10 -10 -10 -10 -10
5 5 3 2 -0 -1 -1 -3 -9 -7 -7 -6 -6 -7 -6 -6 -5 -6 -5 -4 -4 -4 -4 -4 -5 -5 -5 -6 -7 -7 -7 -7 -7 -7 -6 -7 -7 -8 -7 -8 -8 -9 -9 -9 -10 -10 -10 -10 -10
2 1 -0 -0 -3 -3 -1 -4 -6 -6 -7 -6 -6 -6 -6 -6 -7 -7 -6 -5 -4 -4 -5 -5 -5 -5 -6 -7 -7 -7 -7 -7 -7 -7 -6 -7 -7 -6 -6 -8 -8 -9 -9 -10 -10 -10 -10 -10 -10
1 -0 -1 -3 -3 -5 -4 -5 -6 -6 -6 -6 -6 -6 -6 -6 -7 -6 -5 -5 -4 -4 -5 -5 -5 -6 -6 -7 -6 -7 -7 -6 -6 -6 -6 -7 -6 -6 -6 -8 -8 -9 -9 -10 -10 -10 -10 -10 -10
1 -0 -1 -2 -8 -6 -5 -6 -7 -8 -7 -7 -6 -6 -6 -7 -7 -6 -5 -4 -4 -5 -5 -5 -5 -6 -6 -6 -6 -6 -6 -6 -7 -7 -7 -6 -6 -6 -6 -7 -8 -8 -9 -9 -10 -10 -10 -11 -11
0 -1 -1 -3 -4 -8 -11 -6 -8 -7 -8 -7 -7 -7 -8 -7 -7 -6 -5 -4 -5 -5 -5 -5 -5 -6 -6 -6 -6 -6 -6 -7 -8 -8 -8 -7 -6 -6 -6 -7 -8 -8 -9 -9 -9 -10 -10 -11 -11
-0 -1 -2 -3 -4 -6 -6 -6 -7 -7 -8 -8 -7 -7 -8 -8 -7 -7 -5 -4 -4 -4 -4 -4 -5 -5 -6 -7 -7 -6 -6 -7 -7 -8 -8 -7 -6 -6 -7 -7 -8 -8 -9 -9 -9 -10 -10 -11 -11

GFSSGP_700_temp_249.txt.gz
Temp
12 12 12 12 11 10 9 8 9 9 9 9 8 8 9 9 8 7 6 6 6 4 3 3 4 3 4 4 4 4 3 4 5 5 5 5 5 6 6 5 5 5 6 6 5 5 6 6 6
12 12 12 11 11 10 8 7 8 8 8 7 8 8 8 8 8 7 6 5 4 3 3 4 2 3 4 4 3 3 3 3 3 4 5 4 5 5 5 5 5 5 5 5 5 5 5 5 5
12 12 11 11 10 9 7 7 7 7 7 8 7 7 7 7 6 6 5 4 4 3 2 2 2 2 3 3 4 3 2 2 3 4 3 4 4 4 5 5 5 5 5 5 5 5 5 5 5
12 11 11 11 10 8 7 6 6 7 7 7 7 7 6 6 6 5 5 4 3 1 1 1 1 2 2 3 3 3 2 2 3 3 3 3 4 4 4 4 4 4 4 5 5 5 5 5 5
11 11 11 10 9 7 7 7 7 7 7 8 7 7 6 5 5 5 4 3 2 1 1 1 1 1 1 1 1 2 2 2 2 2 2 3 3 3 3 4 4 4 4 4 4 4 4 4 5
11 10 10 10 8 7 7 8 8 8 8 7 6 5 4 4 3 2 2 2 1 1 1 2 1 1 1 1 1 1 1 1 2 2 1 2 2 2 2 3 3 3 3 4 4 4 4 4 4
10 10 10 9 9 8 8 7 7 7 7 6 6 4 3 2 0 -0 -1 -0 -0 -0 0 0 1 1 1 1 1 1 1 1 1 1 2 2 2 1 2 3 2 3 3 3 3 3 4 4 3
10 10 9 9 9 8 8 7 6 6 6 5 4 2 1 0 -1 -1 -2 -1 -1 -1 -1 -0 -0 -0 -1 -1 -1 -1 -0 -0 -0 -0 -0 0 1 1 2 2 2 2 2 2 2 2 3 3 3
10 10 10 9 8 8 7 6 6 6 5 4 3 1 0 -1 -1 -1 -0 0 0 0 0 -1 -1 -1 -1 -1 -2 -2 -2 -1 -1 -1 -1 -1 -0 -0 0 0 1 2 2 1 1 1 1 2 3
10 10 9 9 8 8 6 6 5 5 3 2 0 -0 -1 -1 -1 -0 0 0 0 -0 -1 -2 -2 -2 -2 -2 -2 -1 -2 -2 -2 -2 -1 -1 -1 -1 -1 -1 -1 -0 0 1 1 0 0 1 2
10 10 9 9 8 7 6 5 5 4 3 2 0 -1 -2 -1 -1 -1 -1 -1 -2 -2 -3 -3 -3 -2 -2 -2 -1 -1 -1 -1 -1 -2 -2 -2 -2 -2 -2 -2 -2 -1 -1 -1 -1 0 0 1 0
10 9 9 8 7 6 5 4 3 2 1 -1 -1 -2 -3 -2 -2 -2 -2 -2 -2 -3 -3 -2 -2 -2 -2 -1 -1 -1 -1 -2 -1 -1 -1 -2 -2 -3 -2 -3 -3 -3 -2 -2 -2 -2 -1 0 1
9 9 8 7 6 5 4 4 3 2 -1 -1 -3 -3 -3 -3 -3 -2 -2 -3 -3 -3 -3 -3 -3 -3 -3 -2 -2 -2 -2 -3 -2 -2 -2 -2 -3 -3 -3 -3 -3 -3 -3 -3 -3 -2 -2 -2 -1
8 8 7 6 4 4 3 3 1 -1 -2 -3 -3 -3 -3 -3 -3 -3 -3 -3 -4 -4 -4 -4 -3 -3 -3 -3 -2 -2 -3 -3 -3 -3 -3 -3 -3 -3 -3 -4 -3 -4 -4 -4 -4 -4 -3 -3 -2
7 6 6 5 4 3 2 1 0 -2 -3 -4 -4 -4 -4 -4 -4 -4 -4 -3 -4 -4 -4 -3 -3 -3 -3 -3 -3 -3 -3 -2 -2 -3 -3 -3 -4 -4 -5 -4 -4 -4 -5 -5 -5 -5 -5 -4 -4
7 6 5 4 3 2 2 0 -2 -3 -3 -4 -5 -5 -4 -4 -4 -3 -3 -3 -4 -4 -4 -3 -3 -3 -3 -3 -3 -3 -3 -3 -3 -3 -3 -4 -4 -4 -4 -5 -5 -5 -5 -5 -5 -6 -6 -6 -5
6 5 4 4 3 2 1 -0 -3 -4 -5 -6 -5 -5 -4 -4 -3 -3 -4 -4 -4 -4 -3 -3 -3 -4 -4 -3 -3 -3 -3 -3 -3 -3 -3 -4 -4 -4 -4 -4 -5 -6 -5 -6 -6 -6 -6 -6 -6
5 4 3 3 2 1 -0 -1 -3 -4 -6 -6 -5 -5 -5 -4 -4 -4 -4 -4 -4 -4 -3 -4 -4 -4 -3 -3 -3 -3 -3 -3 -3 -3 -3 -4 -4 -4 -4 -5 -5 -5 -6 -6 -6 -6 -6 -7 -8
6 5 3 3 1 -0 -1 -2 -3 -5 -6 -5 -6 -5 -5 -4 -4 -5 -5 -5 -4 -4 -4 -3 -3 -3 -3 -3 -2 -2 -2 -3 -3 -4 -4 -5 -5 -5 -5 -5 -5 -6 -6 -6 -7 -7 -7 -7 -8
5 4 3 2 1 0 -2 -3 -5 -6 -6 -6 -6 -5 -5 -5 -4 -4 -5 -5 -5 -4 -4 -3 -4 -4 -4 -3 -3 -4 -4 -4 -4 -4 -5 -5 -5 -5 -5 -5 -5 -5 -6 -7 -7 -7 -8 -8 -8
5 3 2 1 1 0 -1 -4 -5 -6 -6 -5 -5 -5 -5 -5 -5 -5 -5 -5 -5 -4 -3 -3 -4 -4 -4 -4 -4 -4 -5 -5 -5 -5 -5 -6 -5 -5 -5 -5 -6 -6 -7 -7 -7 -8 -9 -8 -8
5 3 3 3 2 0 -1 -2 -6 -6 -5 -5 -5 -5 -5 -6 -5 -6 -5 -5 -5 -4 -4 -4 -4 -4 -4 -5 -5 -6 -6 -6 -6 -6 -6 -6 -6 -6 -6 -7 -7 -7 -7 -7 -8 -8 -9 -9 -9
4 4 3 3 2 0 -2 -3 -7 -5 -5 -6 -5 -6 -6 -6 -6 -6 -5 -6 -5 -4 -4 -4 -4 -5 -5 -6 -7 -6 -6 -6 -6 -7 -6 -6 -6 -6 -6 -7 -6 -7 -8 -8 -8 -9 -9 -10 -10
4 4 3 2 1 -1 -2 -2 -7 -6 -7 -6 -6 -7 -7 -6 -6 -6 -6 -5 -4 -4 -4 -4 -4 -5 -5 -6 -6 -6 -6 -6 -6 -6 -6 -6 -6 -6 -6 -6 -6 -8 -8 -8 -9 -9 -10 -10 -10
5 4 3 2 -1 -2 -2 -3 -7 -7 -7 -7 -7 -6 -6 -6 -6 -5 -5 -4 -4 -3 -3 -4 -4 -5 -5 -6 -6 -6 -5 -6 -7 -7 -7 -6 -6 -6 -5 -6 -7 -8 -8 -9 -9 -9 -10 -10 -10
3 2 1 0 -3 -3 -2 -3 -5 -5 -7 -6 -7 -7 -6 -6 -7 -6 -5 -5 -4 -4 -4 -4 -5 -5 -6 -6 -6 -5 -6 -6 -7 -8 -8 -7 -6 -6 -6 -6 -7 -8 -8 -9 -9 -10 -10 -10 -10
2 1 -1 -2 -3 -6 -4 -5 -5 -6 -6 -6 -7 -6 -6 -6 -6 -6 -5 -5 -4 -4 -4 -4 -5 -5 -6 -6 -6 -6 -7 -8 -8 -8 -8 -7 -6 -6 -6 -7 -7 -8 -8 -9 -10 -11 -10 -10 -10
1 0 -1 -1 -8 -6 -5 -6 -5 -6 -7 -7 -6 -6 -7 -7 -6 -5 -5 -4 -4 -4 -4 -5 -5 -5 -5 -6 -6 -6 -7 -8 -8 -8 -8 -7 -6 -7 -7 -7 -7 -8 -8 -9 -9 -10 -10 -10 -10
0 -1 -1 -2 -3 -8 -11 -6 -6 -7 -7 -7 -7 -7 -7 -6 -6 -5 -4 -4 -4 -4 -4 -4 -5 -4 -5 -5 -5 -6 -7 -8 -8 -7 -7 -7 -7 -7 -7 -8 -8 -8 -9 -9 -10 -10 -10 -10 -11
0 -1 -1 -2 -4 -5 -6 -5 -6 -7 -8 -7 -7 -7 -8 -7 -6 -5 -5 -4 -4 -4 -4 -4 -4 -4 -5 -5 -5 -6 -6 -6 -7 -7 -7 -7 -7 -8 -8 -9 -9 -8 -8 -8 -9 -10 -10 -11 -11

GFSSGP_700_temp_255.txt.gz
Temp
12 12 12 12 11 11 10 8 8 8 8 7 7 7 7 7 6 5 6 5 5 5 5 4 4 3 4 4 3 3 3 4 4 4 4 4 4 4 3 4 4 5 5 6 6 6 5 5 6
12 12 11 11 11 11 9 8 7 7 7 7 7 7 6 6 6 5 5 4 4 3 3 3 3 3 4 3 4 3 3 4 3 3 2 2 3 3 4 4 3 4 4 5 6 6 6 5 5
12 11 11 11 11 10 9 8 7 7 7 7 6 6 6 5 5 5 4 4 3 3 3 3 2 2 2 3 3 3 3 3 3 3 3 2 3 3 3 3 4 3 4 4 4 5 5 6 6
12 11 11 11 11 10 9 8 7 7 7 6 6 5 5 5 4 4 3 3 3 2 2 2 2 2 2 2 2 3 3 3 3 4 4 4 4 3 4 4 3 3 3 3 4 4 4 5 5
12 11 11 10 10 9 8 8 7 7 6 6 5 5 4 4 3 2 2 2 1 1 1 1 2 2 2 2 2 3 3 3 3 4 4 4 4 4 3 4 4 3 3 3 3 3 4 4 4
11 11 10 10 9 9 8 7 7 6 5 5 4 4 3 3 2 2 1 1 0 1 1 1 0 1 1 1 2 2 2 3 3 3 3 3 3 3 3 4 3 3 3 3 3 3 3 3 4
11 10 10 10 9 8 8 6 6 5 4 5 4 3 2 1 1 0 -0 -0 -0 -1 -1 -0 0 1 1 1 1 0 1 1 1 1 1 1 0 1 2 2 2 2 2 2 2 2 2 2 3
10 10 10 9 8 8 7 6 5 5 4 4 3 2 1 1 0 -1 -1 -1 -1 -1 -0 -0 0 0 -0 -1 -1 -1 -1 -1 -1 -1 -1 -0 0 0 1 1 1 1 2 2 3 2 2 2 2
9 9 9 9 8 7 6 5 4 4 4 3 2 2 1 -0 -1 -2 -2 -1 -1 -1 -1 -0 -0 -1 -1 -1 -1 -1 -1 -1 -1 -1 -1 -0 -0 0 0 1 1 1 1 1 2 2 2 2 2
9 9 8 8 7 6 5 4 4 3 3 2 1 0 -1 -2 -2 -2 -2 -1 -1 -1 -1 -1 -1 -1 -1 -2 -2 -2 -1 -1 -1 -1 -1 -1 -1 -0 0 1 1 1 1 1 1 0 1 1 0
9 9 8 7 6 5 4 4 4 3 2 1 1 -0 -1 -2 -2 -3 -2 -2 -2 -2 -2 -2 -2 -2 -2 -2 -2 -2 -2 -2 -2 -2 -2 -1 -1 -1 -0 -0 0 1 0 1 1 1 0 0 0
9 8 8 7 6 5 4 4 3 2 1 1 -1 -1 -2 -3 -4 -3 -2 -2 -2 -2 -2 -2 -3 -3 -2 -2 -2 -1 -2 -2 -2 -2 -2 -2 -2 -2 -2 -1 -1 -0 -0 -0 0 0 1 0 -1
9 8 7 6 5 5 4 3 2 1 -0 -1 -2 -4 -4 -4 -4 -3 -3 -3 -3 -3 -3 -3 -3 -2 -2 -2 -2 -1 -1 -1 -2 -2 -2 -2 -2 -1 -2 -2 -2 -1 -1 -1 -1 -1 -0 0 -0
7 7 6 6 5 4 3 2 1 -0 -1 -3 -4 -4 -5 -4 -4 -4 -3 -3 -3 -3 -3 -3 -3 -3 -2 -2 -1 -1 -1 -2 -2 -2 -2 -2 -2 -1 -1 -2 -2 -2 -2 -2 -1 -1 -1 -1 -1
7 6 5 5 4 3 2 1 -1 -2 -3 -3 -4 -5 -4 -4 -4 -3 -4 -3 -3 -3 -3 -3 -3 -2 -2 -2 -2 -2 -2 -2 -2 -2 -2 -2 -2 -2 -2 -2 -2 -2 -3 -2 -2 -2 -2 -2 -2
6 5 5 4 3 2 1 -1 -2 -2 -3 -4 -5 -5 -4 -4 -3 -4 -4 -4 -4 -3 -4 -4 -3 -3 -3 -2 -2 -2 -3 -3 -3 -3 -3 -3 -2 -2 -2 -2 -2 -2 -3 -3 -3 -3 -3 -2 -3
6 5 5 4 3 1 0 -1 -1 -3 -4 -5 -5 -4 -4 -3 -4 -4 -4 -4 -4 -4 -4 -3 -3 -3 -2 -2 -3 -3 -3 -4 -5 -5 -5 -4 -4 -4 -3 -3 -3 -3 -3 -3 -3 -3 -3 -3 -3
6 5 4 3 2 1 -0 -1 -2 -3 -4 -5 -4 -4 -3 -4 -4 -4 -4 -4 -4 -4 -4 -4 -3 -3 -3 -3 -3 -3 -4 -5 -5 -5 -5 -5 -5 -5 -5 -4 -4 -5 -4 -4 -4 -4 -4 -4 -4
6 6 4 3 2 -0 -1 -1 -2 -3 -4 -3 -4 -4 -3 -4 -4 -4 -4 -4 -3 -4 -3 -3 -3 -3 -3 -3 -3 -3 -4 -5 -5 -5 -5 -5 -5 -6 -5 -6 -6 -6 -5 -5 -5 -4 -4 -4 -5
6 5 3 2 1 -0 -1 -2 -3 -4 -4 -4 -4 -4 -4 -4 -4 -4 -4 -3 -4 -3 -3 -3 -3 -3 -4 -4 -4 -5 -5 -5 -5 -5 -5 -6 -6 -6 -6 -6 -6 -6 -6 -5 -5 -5 -5 -5 -5
5 4 3 1 0 -1 -2 -3 -4 -4 -5 -5 -4 -4 -5 -5 -4 -4 -3 -3 -3 -3 -3 -3 -3 -3 -4 -4 -4 -5 -5 -6 -6 -6 -6 -6 -7 -8 -7 -7 -6 -6 -6 -5 -5 -5 -6 -5 -6
5 4 3 2 1 -1 -2 -2 -4 -4 -4 -3 -4 -4 -5 -5 -4 -4 -3 -3 -3 -3 -4 -4 -4 -3 -4 -4 -4 -5 -5 -5 -6 -7 -7 -7 -8 -8 -8 -7 -7 -6 -7 -6 -5 -6 -6 -7 -6
4 4 3 2 0 -1 -2 -4 -5 -3 -2 -3 -4 -5 -5 -5 -4 -3 -3 -4 -4 -4 -4 -4 -4 -4 -4 -4 -5 -5 -5 -5 -6 -6 -7 -7 -7 -7 -7 -7 -7 -7 -7 -7 -7 -8 -8 -7 -8
5 4 1 1 -1 -1 -2 -3 -4 -4 -5 -5 -5 -5 -5 -5 -4 -4 -4 -4 -4 -4 -4 -3 -4 -4 -4 -4 -5 -6 -6 -6 -6 -5 -6 -7 -8 -8 -7 -7 -7 -7 -7 -8 -8 -8 -8 -8 -8
4 5 2 2 0 0 -2 -4 -3 -4 -4 -5 -6 -5 -5 -5 -4 -3 -3 -4 -4 -4 -4 -4 -4 -4 -4 -5 -6 -6 -6 -6 -7 -7 -7 -7 -8 -8 -9 -9 -8 -8 -8 -8 -7 -8 -8 -8 -9
4 3 2 2 -0 -2 -2 -3 -3 -4 -4 -5 -6 -5 -5 -4 -4 -4 -4 -4 -4 -4 -4 -4 -4 -4 -5 -5 -6 -6 -7 -7 -8 -8 -8 -8 -8 -9 -9 -9 -9 -9 -8 -8 -8 -8 -8 -9 -9
3 2 1 -1 -3 -4 -2 -2 -3 -4 -4 -5 -5 -5 -5 -4 -4 -4 -4 -4 -4 -4 -4 -4 -4 -5 -5 -6 -6 -7 -7 -8 -8 -9 -9 -9 -9 -9 -9 -9 -9 -9 -9 -8 -8 -8 -8 -9 -9
2 2 1 0 -3 -1 -2 -3 -3 -4 -4 -5 -5 -5 -5 -4 -4 -4 -4 -4 -4 -4 -4 -4 -5 -5 -5 -6 -6 -7 -8 -8 -9 -9 -10 -10 -10 -10 -10 -10 -10 -9 -9 -9 -7 -8 -8 -9 -10
2 1 1 -1 -2 -3 -5 -1 -3 -4 -5 -5 -6 -6 -5 -5 -4 -4 -4 -4 -4 -4 -4 -4 -5 -5 -6 -6 -6 -7 -7 -8 -8 -9 -10 -11 -10 -11 -10 -11 -10 -9 -9 -9 -8 -8 -8 -9 -10
2 2 1 -0 -2 -4 -4 -2 -2 -3 -5 -6 -6 -5 -5 -5 -4 -4 -4 -4 -4 -4 -4 -4 -5 -5 -6 -6 -6 -6 -6 -7 -8 -9 -10 -11 -10 -11 -11 -11 -10 -9 -9 -9 -8 -8 -8 -9 -9

GFSSGP_700_temp_258.txt.gz
Temp
12 12 12 12 11 10 9 9 9 8 8 8 7 7 7 7 6 5 6 6 6 5 5 5 5 5 5 5 5 4 4 4 4 5 5 5 5 5 4 4 4 5 5 4 5 6 6 6 7
12 12 12 11 11 12 9 9 9 8 8 7 7 6 6 6 6 5 5 5 4 4 3 3 2 3 3 3 3 3 4 4 4 4 4 5 5 4 4 3 3 3 4 3 4 4 5 5 6
12 12 11 11 11 12 9 8 8 8 7 7 6 6 6 6 5 5 5 4 4 3 3 3 3 3 3 3 3 3 3 4 4 4 4 4 4 5 5 4 3 3 3 3 4 4 4 4 5
12 11 11 11 10 10 9 8 7 7 6 6 5 5 5 5 5 5 4 4 3 3 2 2 2 2 2 2 2 3 3 3 3 4 4 4 5 4 4 5 5 4 3 3 3 4 4 4 4
11 11 10 10 10 10 9 8 7 6 6 6 5 5 5 4 4 4 3 2 2 1 1 0 0 0 1 1 2 2 2 2 3 3 4 4 5 5 5 5 5 5 5 4 3 3 4 4 4
11 11 11 10 9 9 8 7 6 6 5 5 5 4 4 3 3 2 2 1 0 -0 -0 -0 0 0 1 1 1 2 2 2 2 2 1 2 3 3 4 4 5 4 4 4 3 3 2 3 4
11 10 10 9 9 8 7 6 6 5 5 5 4 3 3 3 2 1 0 -1 -1 -1 -1 -1 -0 0 1 1 0 0 -0 -0 -0 -0 0 1 0 1 1 2 2 2 2 3 3 3 2 2 2
10 10 9 9 8 8 7 6 6 5 5 4 4 3 2 1 1 0 -0 -1 -1 -1 -1 -0 -0 0 -0 -1 -1 -1 -1 -1 -1 -0 -0 0 0 0 0 -0 0 0 0 1 2 2 2 2 2
10 9 8 9 7 7 6 6 5 4 4 4 3 2 1 1 1 -1 -2 -1 -1 -1 -1 -1 -1 -1 -1 -1 -1 -1 -1 -1 -1 -1 -1 -1 -0 0 0 0 0 -0 -0 -0 0 1 2 2 2
9 9 8 8 7 7 6 5 4 3 3 3 2 1 -0 -1 -1 -2 -2 -2 -1 -1 -1 -2 -2 -2 -2 -2 -2 -1 -1 -1 -1 -2 -1 -1 -1 -1 -1 -1 -0 -0 -1 -0 -0 0 0 1 1
9 9 8 8 7 6 5 4 4 3 2 1 1 0 -0 -1 -2 -2 -2 -2 -2 -3 -3 -3 -2 -2 -2 -2 -2 -2 -1 -1 -1 -1 -2 -2 -2 -1 -1 -1 -1 -1 -0 -1 -1 -0 -0 0 0
9 8 8 7 6 5 4 3 3 2 2 1 0 -1 -1 -2 -2 -2 -2 -3 -3 -3 -3 -3 -3 -3 -3 -2 -2 -2 -2 -2 -1 -2 -2 -2 -2 -2 -2 -1 -2 -1 -1 -1 -1 -1 -1 -0 -0
9 8 7 6 5 4 3 3 2 2 1 -0 -1 -2 -3 -3 -3 -3 -3 -3 -3 -3 -3 -3 -3 -3 -2 -2 -2 -2 -2 -2 -2 -2 -2 -1 -2 -2 -2 -2 -2 -2 -2 -2 -1 -1 -1 -1 -1
8 7 6 6 4 3 3 2 1 1 -0 -1 -2 -3 -3 -3 -3 -3 -3 -3 -3 -3 -3 -3 -3 -2 -2 -2 -2 -2 -2 -2 -2 -2 -2 -2 -2 -2 -2 -2 -3 -2 -2 -2 -2 -2 -2 -2 -1
7 6 5 5 3 3 2 1 1 -0 -1 -2 -3 -3 -3 -3 -3 -3 -3 -3 -2 -3 -3 -2 -2 -2 -2 -2 -3 -3 -3 -3 -3 -3 -3 -3 -3 -3 -3 -2 -3 -3 -3 -3 -2 -2 -2 -2 -2
6 5 3 4 3 2 1 -1 0 -1 -2 -3 -3 -3 -3 -3 -3 -3 -2 -2 -3 -2 -2 -2 -2 -2 -3 -3 -3 -3 -3 -4 -4 -5 -5 -5 -4 -4 -3 -3 -3 -3 -3 -3 -3 -3 -2 -2 -2
6 6 3 3 2 1 1 -0 -0 -2 -3 -3 -3 -3 -3 -3 -3 -2 -2 -3 -2 -2 -2 -2 -2 -3 -3 -3 -3 -3 -4 -4 -5 -5 -5 -5 -5 -5 -4 -4 -4 -4 -4 -4 -4 -4 -3 -3 -3
6 4 3 1 2 1 1 -0 -1 -2 -2 -3 -3 -3 -3 -3 -3 -3 -3 -2 -2 -2 -3 -3 -3 -3 -3 -3 -3 -3 -4 -5 -5 -5 -6 -6 -5 -5 -5 -4 -5 -6 -6 -5 -5 -5 -4 -4 -3
6 5 3 3 2 1 0 -0 -1 -2 -3 -3 -3 -3 -3 -3 -3 -3 -2 -2 -3 -3 -3 -3 -3 -3 -3 -3 -3 -3 -4 -4 -5 -6 -6 -6 -6 -6 -6 -6 -6 -7 -7 -7 -6 -6 -5 -5 -4
6 4 2 2 2 1 -0 -2 -2 -3 -3 -3 -4 -3 -3 -3 -3 -3 -2 -2 -3 -3 -3 -3 -3 -3 -3 -4 -4 -4 -4 -5 -5 -5 -6 -7 -7 -8 -8 -8 -7 -7 -7 -7 -7 -6 -6 -5 -5
6 4 2 1 1 1 -0 -4 -2 -3 -2 -4 -4 -4 -4 -4 -3 -2 -2 -3 -3 -3 -3 -3 -3 -3 -4 -4 -4 -4 -5 -5 -5 -5 -6 -7 -7 -8 -8 -8 -8 -8 -8 -7 -7 -7 -7 -6 -6
4 4 4 3 1 2 0 3 -3 -3 -3 -4 -4 -4 -4 -4 -3 -3 -3 -3 -3 -3 -4 -4 -4 -4 -4 -4 -4 -5 -6 -6 -7 -7 -7 -7 -8 -9 -9 -8 -9 -8 -8 -7 -7 -7 -7 -7 -6
5 4 3 2 -0 -1 -2 -1 -3 -2 -2 -2 -3 -4 -4 -4 -3 -3 -3 -3 -3 -4 -4 -4 -4 -4 -4 -5 -5 -6 -7 -7 -7 -7 -8 -8 -8 -9 -9 -10 -9 -9 -8 -8 -7 -8 -9 -8 -8
5 4 2 2 -1 3 -1 -1 -1 -2 -2 -3 -4 -4 -4 -3 -3 -3 -3 -3 -4 -4 -4 -4 -4 -4 -4 -5 -5 -6 -6 -7 -7 -8 -8 -9 -9 -9 -9 -10 -10 -10 -9 -8 -8 -8 -8 -8 -8
5 3 6 6 5 6 -0 -2 -1 -1 -2 -4 -5 -4 -4 -4 -3 -3 -3 -3 -3 -4 -4 -4 -4 -4 -5 -5 -5 -5 -6 -7 -8 -9 -9 -10 -10 -10 -9 -10 -10 -10 -10 -9 -8 -8 -8 -8 -8
5 4 5 5 7 5 -0 1 -2 -1 -3 -4 -5 -4 -4 -4 -3 -3 -3 -3 -3 -4 -4 -4 -4 -4 -4 -5 -5 -5 -6 -7 -8 -9 -10 -10 -10 -10 -10 -10 -10 -10 -10 -9 -8 -8 -8 -8 -8
4 3 2 -0 -0 -0 2 -1 -1 -2 -4 -4 -4 -4 -4 -4 -3 -3 -3 -3 -4 -4 -4 -4 -4 -4 -5 -5 -5 -5 -6 -6 -8 -9 -10 -10 -10 -11 -11 -11 -10 -10 -9 -9 -8 -8 -8 -8 -8
3 3 1 1 2 4 5 0 0 -2 -3 -4 -4 -4 -4 -4 -3 -3 -3 -3 -4 -4 -4 -4 -4 -5 -5 -5 -5 -5 -6 -6 -8 -8 -9 -10 -10 -11 -12 -11 -10 -9 -9 -8 -8 -7 -8 -8 -9
3 3 2 1 0 3 3 4 -1 -2 -3 -4 -4 -4 -4 -3 -3 -3 -4 -4 -4 -4 -5 -4 -4 -5 -5 -4 -5 -5 -5 -6 -7 -8 -9 -10 -10 -11 -12 -11 -10 -9 -9 -8 -8 -8 -8 -8 -8
3 3 2 0 -1 -2 -3 0 -1 -2 -3 -4 -5 -4 -4 -4 -3 -3 -3 -4 -4 -4 -5 -4 -5 -5 -5 -4 -5 -5 -5 -6 -7 -8 -9 -9 -10 -11 -11 -10 -9 -9 -8 -8 -8 -9 -9 -8 -9

GFSSGP_700_temp_264.txt.gz
Temp
11 11 11 11 10 11 11 9 7 7 10 9 8 8 7 7 7 6 7 7 6 5 5 5 5 5 5 5 5 5 5 5 5 5 5 5 6 6 6 6 6 6 7 7 7 6 6 6 6
11 11 11 10 10 12 9 8 9 9 8 7 6 4 7 7 6 6 6 5 5 4 4 4 4 4 4 4 4 4 4 4 4 4 4 4 4 5 5 6 6 5 6 6 7 7 6 6 6
11 11 11 10 11 9 8 7 8 8 8 7 7 6 6 6 6 5 5 5 4 4 4 4 4 4 4 4 4 3 4 4 4 4 5 5 6 6 6 5 5 5 6 5 6 6 6 6 6
11 11 11 11 9 9 8 6 8 7 8 6 6 7 6 6 5 5 4 4 4 4 3 3 3 3 3 3 3 3 3 3 3 4 4 5 5 6 6 6 6 6 5 6 5 5 5 5 6
11 10 10 11 9 9 9 8 6 5 6 5 4 5 5 6 4 4 3 3 3 3 2 2 2 2 3 2 2 2 2 2 3 3 3 3 3 3 4 5 5 5 5 6 6 5 5 5 5
10 9 11 10 8 8 9 7 6 6 6 6 3 4 5 6 3 3 3 2 2 2 2 2 1 1 1 1 0 -0 -0 -0 -0 -0 -0 -0 -0 -0 0 0 1 2 3 4 4 5 5 4 4
10 9 10 10 8 7 8 7 6 6 7 5 4 1 3 4 3 2 2 1 1 1 1 1 0 0 0 0 0 -0 -1 -1 -1 -1 -1 -1 -0 0 0 0 1 1 1 2 2 2 3 4 4
10 10 10 9 8 6 7 7 6 6 6 5 4 4 3 2 2 2 1 1 1 1 0 0 0 -0 -0 -1 -0 -0 -1 -1 -1 -1 -1 -0 0 0 1 1 1 1 1 0 1 1 1 1 2
9 9 9 9 7 7 7 7 7 5 5 5 4 3 3 2 1 1 2 2 1 -0 -0 0 0 -0 -0 -0 -0 -0 -0 -0 -1 -0 -0 -0 0 0 -0 0 0 1 1 0 -0 0 0 1 1
9 8 9 8 8 7 6 7 5 5 5 5 4 2 1 1 1 1 1 0 -0 0 1 0 0 0 0 0 1 0 -0 0 0 -0 -0 -1 -0 -0 -0 -0 -0 0 0 -0 -1 -0 -0 -0 0
9 9 9 9 8 7 6 5 5 5 5 3 2 2 1 1 1 1 0 -0 -0 -0 -0 -0 0 0 0 0 0 0 0 0 0 -0 -1 -1 -1 -1 -1 -1 -0 -0 -0 -0 -1 -1 -0 -0 -0
9 9 9 8 7 7 6 5 5 4 3 2 2 2 1 1 1 0 -1 -1 -1 -1 -0 -0 -0 -0 -0 -0 -0 -0 -0 -1 -1 -1 -1 -1 -1 -2 -2 -2 -1 -1 -1 -0 -1 -1 -1 -1 -1
9 8 8 7 7 6 5 5 4 4 3 2 2 1 0 0 -1 -1 -1 -1 -1 -1 -0 -0 -0 -0 -0 -1 -1 -1 -1 -1 -1 -2 -2 -2 -2 -2 -3 -3 -3 -3 -2 -2 -1 -1 -1 -2 -3
8 8 7 7 6 6 5 4 4 3 2 1 -0 -1 -1 -1 -2 -1 -1 -1 -1 -1 -1 -1 -1 -1 -1 -1 -1 -1 -1 -2 -2 -2 -2 -2 -2 -2 -3 -4 -4 -4 -4 -4 -3 -3 -3 -2 -3
8 7 6 6 6 5 4 4 3 2 1 0 -0 -1 -1 -2 -2 -2 -2 -1 -1 -1 -1 -1 -1 -1 -1 -2 -2 -2 -2 -2 -3 -2 -3 -3 -3 -3 -3 -4 -5 -4 -4 -4 -4 -4 -4 -4 -3
7 6 5 5 5 5 3 2 2 1 0 0 -1 -2 -1 -2 -2 -2 -2 -1 -1 -1 -1 -1 -2 -2 -2 -2 -2 -2 -3 -3 -3 -3 -3 -3 -4 -4 -4 -4 -5 -6 -6 -5 -5 -4 -4 -5 -5
7 7 6 5 5 4 3 1 3 1 0 -0 -1 -1 -1 -2 -2 -2 -1 -2 -1 -1 -1 -2 -2 -2 -2 -2 -3 -3 -3 -3 -3 -3 -4 -4 -4 -5 -5 -6 -6 -7 -7 -7 -6 -6 -6 -5 -6
7 7 7 5 5 4 2 0 1 1 1 0 -0 -1 -2 -2 -2 -2 -1 -1 -1 -1 -2 -2 -2 -2 -2 -3 -3 -3 -3 -3 -4 -4 -5 -5 -6 -7 -6 -7 -7 -8 -8 -8 -8 -8 -8 -7 -7
7 6 6 5 5 4 2 0 0 1 1 1 -0 -1 -2 -2 -2 -2 -2 -1 -2 -2 -2 -2 -2 -2 -3 -3 -3 -3 -3 -4 -5 -5 -6 -6 -8 -8 -9 -8 -8 -9 -9 -9 -10 -10 -9 -9 -9
7 6 6 5 4 4 2 1 -0 1 0 -1 -1 -1 -2 -2 -2 -2 -2 -2 -2 -2 -2 -2 -2 -3 -3 -3 -3 -4 -4 -5 -5 -6 -6 -8 -8 -9 -9 -10 -9 -10 -10 -10 -11 -10 -10 -10 -10
6 6 5 4 4 4 3 2 0 0 0 -1 -3 -2 -2 -2 -2 -2 -2 -2 -2 -2 -2 -2 -3 -3 -3 -3 -4 -4 -4 -5 -5 -5 -6 -8 -9 -9 -10 -10 -10 -11 -11 -11 -11 -11 -10 -10 -10
6 6 5 4 3 3 3 2 -0 -1 -1 -3 -3 -2 -2 -2 -2 -2 -2 -2 -2 -2 -2 -3 -3 -3 -3 -3 -4 -4 -4 -5 -5 -6 -7 -9 -9 -10 -11 -11 -11 -11 -11 -11 -11 -11 -10 -10 -10
7 6 5 5 2 2 3 2 -0 -0 -1 -2 -1 -2 -2 -2 -2 -2 -2 -2 -2 -2 -3 -3 -3 -3 -3 -4 -4 -4 -5 -5 -6 -7 -7 -9 -10 -11 -11 -11 -11 -11 -11 -11 -11 -11 -10 -10 -10
7 6 4 4 2 3 3 3 1 0 -0 -0 -1 -2 -2 -2 -2 -2 -2 -2 -2 -3 -3 -3 -4 -4 -4 -4 -4 -5 -5 -5 -6 -7 -7 -9 -10 -11 -11 -11 -11 -11 -10 -10 -11 -11 -10 -10 -10
7 6 5 4 2 3 4 3 2 2 1 1 -0 -2 -2 -2 -2 -2 -2 -2 -2 -3 -3 -3 -4 -4 -4 -4 -4 -5 -5 -6 -7 -7 -7 -9 -10 -10 -10 -10 -10 -10 -10 -10 -10 -11 -10 -10 -10
6 5 5 4 3 3 4 3 2 2 1 1 -1 -2 -2 -2 -2 -2 -2 -2 -3 -3 -3 -4 -4 -4 -4 -4 -4 -5 -5 -6 -7 -7 -7 -9 -10 -10 -10 -10 -10 -10 -9 -10 -10 -11 -11 -11 -10
6 5 4 3 4 2 5 3 2 1 1 -0 -1 -2 -2 -2 -2 -2 -2 -2 -3 -3 -3 -3 -4 -4 -4 -4 -5 -5 -6 -7 -7 -7 -8 -9 -10 -10 -10 -10 -10 -10 -10 -9 -11 -11 -11 -11 -10
5 5 4 4 -0 1 6 4 2 2 1 -1 -1 -2 -2 -2 -2 -2 -2 -2 -3 -3 -3 -4 -4 -4 -4 -5 -5 -5 -6 -7 -7 -7 -8 -8 -9 -10 -10 -10 -10 -9 -9 -9 -10 -11 -11 -11 -10
5 4 4 3 3 1 -0 2 2 2 0 -0 -1 -2 -2 -2 -2 -2 -2 -2 -2 -3 -3 -4 -4 -4 -5 -5 -5 -5 -6 -7 -7 -8 -8 -8 -9 -10 -10 -10 -11 -10 -10 -10 -10 -10 -9 -10 -9
6 5 4 3 2 2 2 2 3 2 1 0 -1 -2 -1 -2 -2 -1 -2 -2 -3 -3 -3 -4 -4 -4 -5 -5 -5 -5 -6 -7 -7 -8 -8 -8 -9 -10 -10 -11 -11 -10 -10 -10 -10 -9 -9 -9 -9